[[{"header":{"parameterUnit":"m.s-1","parameterCategory":1,"la1":30.2991,"la2":30.254,"lo1":-89.0895,"lo2":-89.0444,"dy":0.0017,"dx":0.0017,"nx":28,"ny":28,"refTime":"2023-07-31T03:00:00:Z","depth":0,"parameterNumber":2,"parameterNumberName":"U-component_of_WINDS"},"data":[0,0,0,0,0,0,0,0,0,0,0,0,0,0,0,0,0,0,0,0,0,0,0,0,0,0,0,0,0,0,0,0,0,0,0,0,0,0,0,0,0,0,0,0,0,0,0,0,0,0,0,0,0,0,0,0,0,0,-3.3877,-3.3877,0,-3.3881,-3.3881,-3.3881,-3.3818,-3.3816,-3.3815,-3.3813,-3.3816,-3.3818,-3.382,0,0,0,0,0,0,0,0,0,0,0,0,0,-3.3813,-3.3815,-3.3877,-3.3877,-3.3877,-3.3881,-3.3881,-3.3881,-3.3818,-3.3816,-3.3814,-3.3812,-3.3816,-3.3818,-3.382,0,0,0,0,0,0,0,0,0,0,0,0,0,-3.3832,-3.3815,-3.3877,-3.3846,-3.3843,-3.3881,-3.3881,-3.3881,-3.3819,-3.3816,-3.3814,-3.3811,-3.3815,-3.3818,-3.382,-3.3888,0,0,-3.3828,-3.3829,0,0,0,0,0,0,0,0,-3.3831,-3.3834,-3.385,-3.3848,-3.3845,-3.3846,-3.386,-3.3883,-3.3819,-3.3828,-3.3813,-3.381,-3.3828,-3.383,-3.3836,-3.3888,-3.3888,-3.3828,-3.383,-3.3831,-3.3832,0,0,0,0,0,0,0,-3.383,-3.3834,-3.3878,-3.3851,-3.3848,-3.3832,-3.3832,-3.3864,-3.3843,-3.3827,-3.3822,-3.3824,-3.3827,-3.3834,-3.3836,-3.3888,-3.3828,-3.383,-3.3832,-3.3833,-3.3997,-3.4,0,0,0,0,0,0,-3.3833,-3.3833,-3.3878,-3.3879,-3.3831,-3.3835,-3.3835,-3.3849,-3.3842,-3.3839,-3.3826,-3.3821,-3.3831,-3.3833,-3.3836,-3.3916,-3.3831,-3.3833,-3.3835,-3.3994,-3.3998,-3.4001,0,0,0,0,0,0,-3.3831,-3.3837,-3.3878,-3.3855,-3.3859,-3.3839,-3.3855,-3.385,-3.3857,-3.3841,-3.3837,-3.3838,-3.3829,-3.3832,-3.3876,-3.3915,-3.3834,-3.3837,-3.3991,-3.3995,-3.3999,-3.4076,0,0,0,0,0,0,-3.383,-3.3837,-3.3863,-3.3856,-3.386,-3.3918,-3.3857,-3.3852,-3.3862,-3.3855,-3.3851,-3.3848,-3.3827,-3.3872,-3.3878,-3.3917,-3.3839,-3.3987,-3.3993,-3.3998,-3.4069,-3.4082,-3.4093,0,0,0,0,0,-3.3828,-3.3883,-3.3864,-3.387,-3.3891,-3.3921,-3.3923,-3.3898,-3.3865,-3.3891,-3.3881,-3.3848,-3.391,-3.3877,-3.3883,-3.3924,-3.3985,-3.3991,-3.3997,-3.4064,-3.4079,-3.4092,0,0,0,0,0,0,-3.3894,-3.3882,-3.386,-3.3915,-3.392,-3.391,-3.3941,-3.3915,-3.3928,-3.3922,-3.389,-3.3889,-3.3939,-3.3935,-3.3899,-3.3989,-3.3941,-3.3949,-3.399,-3.4004,-3.4016,-3.4016,-3.3841,0,0,0,0,0,-3.3915,-3.3941,-3.3928,-3.3977,-3.3981,-3.3961,-3.3973,-3.3953,-3.3956,-3.3958,-3.3951,-3.3955,-3.3975,-3.3989,-3.4007,-3.4068,-3.4067,-3.4099,-3.4111,-3.412,-3.4128,-3.4162,-3.4176,-3.4022,-3.4022,-3.4021,0,0,-3.3959,-3.3955,-3.3973,-3.3991,-3.3992,-3.4019,-3.3963,-3.3993,-3.4013,-3.3962,-3.4004,-3.3999,-3.4001,-3.4055,-3.4078,-3.4053,-3.417,-3.4128,-3.4136,-3.4138,-3.417,-3.4185,-3.4198,-3.4026,-3.4025,-3.4024,0,0,-3.4053,-3.4052,-3.4094,-3.4097,-3.41,-3.4086,-3.4097,-3.4092,-3.4087,-3.4128,-3.4091,-3.4114,-3.4149,-3.4153,-3.416,-3.4257,-3.4228,-3.4263,-3.4324,-3.4358,-3.437,-3.4381,-3.4417,-3.443,-3.4271,-3.4271,-3.4271,0,-3.4107,-3.4146,-3.4119,-3.4153,-3.4162,-3.4118,-3.4161,-3.4165,-3.4173,-3.4181,-3.4153,-3.4198,-3.4197,-3.4251,-3.4275,-3.4282,-3.4293,-3.4264,-3.437,-3.4381,-3.439,-3.4425,-3.4438,-3.4275,-3.4275,-3.4274,-3.4274,0,-3.4213,-3.4241,-3.4275,-3.4286,-3.4299,-3.4337,-3.4316,-3.4332,-3.4312,-3.4302,-3.4345,-3.4342,-3.4359,-3.437,-3.435,-3.4423,-3.4408,-3.4376,-3.4327,-3.441,-3.4442,-3.4455,-3.4282,-3.428,-3.4279,-3.4278,0,0,-3.4349,-3.4345,-3.4358,-3.4363,-3.4364,-3.4385,-3.4421,-3.4439,-3.4455,-3.4462,-3.4493,-3.4524,-3.4495,-3.4503,-3.4483,-3.4512,-3.4592,-3.4477,-3.4476,-3.45,-3.4673,-3.4699,-3.4714,-3.4572,-3.4575,-3.4576,-3.4674,0,-3.4441,-3.4504,-3.4482,-3.4546,-3.4572,-3.4532,-3.4564,-3.4568,-3.4559,-3.4581,-3.4571,-3.4595,-3.4554,-3.4558,-3.4585,-3.4577,-3.4627,-3.4569,-3.4601,-3.4603,-3.4603,-3.4731,-3.4757,-3.4849,-3.4686,-3.4688,-3.4689,0,-3.4558,-3.4572,-3.4639,-3.4637,-3.4647,-3.4677,-3.4692,-3.4712,-3.4716,-3.4708,-3.4718,-3.4692,-3.4728,-3.4679,-3.4729,-3.4691,-3.4702,-3.47,-3.4703,-3.4706,-3.4652,-3.4739,-3.4877,-3.4892,-3.4708,-3.4707,-3.4705,0,-3.4652,-3.4687,-3.4733,-3.4738,-3.4736,-3.4758,-3.4758,-3.476,-3.4773,-3.4786,-3.4794,-3.4811,-3.482,-3.4834,-3.4814,-3.478,-3.4868,-3.4816,-3.4863,-3.4864,-3.4884,-3.4883,-3.5028,-3.4889,-3.4889,-3.4889,-3.4889,0,-3.4759,-3.4802,-3.4776,-3.4804,-3.4851,-3.4825,-3.4873,-3.4868,-3.487,-3.4897,-3.4862,-3.4888,-3.4859,-3.4883,-3.4867,-3.4912,-3.4916,-3.4911,-3.4906,-3.4915,-3.4916,-3.4923,-3.4917,-3.4892,-3.4892,-3.4891,-3.489,0,-3.4873,-3.4857,-3.4904,-3.4899,-3.4899,-3.4934,-3.493,-3.4956,-3.4945,-3.498,-3.4986,-3.497,-3.4996,-3.4977,-3.5002,-3.4991,-3.5051,-3.5037,-3.505,-3.5047,-3.5095,-3.5092,-3.5251,-3.5272,-3.5118,-3.512,-3.5121,0,-3.4943,-3.4976,-3.4975,-3.4991,-3.4993,-3.5019,-3.5032,-3.5007,-3.5023,-3.5031,-3.5056,-3.5079,-3.5096,-3.514,-3.513,-3.515,-3.5136,-3.5191,-3.5139,-3.5147,-3.5139,-3.5138,-3.5142,-3.5202,-3.5204,-3.5205,-3.5206,0,-3.5069,-3.506,-3.5081,-3.5099,-3.5116,-3.5129,-3.514,-3.5155,-3.513,-3.5149,-3.5175,-3.5189,-3.5215,-3.5239,-3.5255,-3.5255,-3.5228,-3.5223,-3.5235,-3.5245,-3.5252,-3.5251,-3.5081,-3.5219,-3.5218,-3.5217,-3.5217,-3.5216,-3.5164,-3.5192,-3.5197,-3.5221,-3.5227,-3.5238,-3.5263,-3.5256,-3.5278,-3.5298,-3.5282,-3.5314,-3.5318,-3.5338,-3.5341,-3.5366,-3.5344,-3.5361,-3.5366,-3.5371,-3.5378,-3.5247,-3.5369,-3.5368,-3.5368,-3.5368,-3.5367,0,-3.5291,-3.5292,-3.5315,-3.5331,-3.5351,-3.5323,-3.5333,-3.5352,-3.5381,-3.5388,-3.5406,-3.5437,-3.546,-3.5453,-3.5474,-3.5496,-3.5484,-3.5502,-3.5501,-3.5502,-3.5396,-3.5385,-3.5512,-3.5512,-3.5512,-3.5512,-3.5512,-3.5512,-3.5359,-3.5405,-3.5397,-3.5446,-3.5446,-3.5479,-3.5487,-3.5497,-3.5503,-3.554,-3.5559,-3.5555,-3.5556,-3.5577,-3.5597,-3.5595,-3.5605,-3.5628,-3.5621,-3.5523,-3.5509,-3.5495,-3.5484,-3.563,-3.563,-3.5725,-3.5726,-3.5726]},{"header":{"parameterUnit":"m.s-1","parameterCategory":1,"la1":30.2991,"la2":30.254,"lo1":-89.0895,"lo2":-89.0444,"dy":0.0017,"dx":0.0017,"nx":28,"ny":28,"refTime":"2023-07-31T03:00:00:Z","depth":0,"parameterNumber":3,"parameterNumberName":"V-component_of_WINDS"},"data":[0,0,0,0,0,0,0,0,0,0,0,0,0,0,0,0,0,0,0,0,0,0,0,0,0,0,0,0,0,0,0,0,0,0,0,0,0,0,0,0,0,0,0,0,0,0,0,0,0,0,0,0,0,0,0,0,0,0,-1.1534,-1.1534,0,-1.1562,-1.1562,-1.1562,-1.1551,-1.155,-1.1549,-1.1549,-1.1578,-1.158,-1.1581,0,0,0,0,0,0,0,0,0,0,0,0,0,-1.147,-1.1471,-1.1533,-1.1534,-1.1534,-1.1561,-1.1562,-1.1562,-1.1551,-1.155,-1.1549,-1.1548,-1.1578,-1.1579,-1.1581,0,0,0,0,0,0,0,0,0,0,0,0,0,-1.1497,-1.1471,-1.1533,-1.1532,-1.1532,-1.1561,-1.1562,-1.1562,-1.1551,-1.155,-1.1549,-1.1548,-1.1577,-1.1579,-1.1581,-1.1615,0,0,-1.1588,-1.1589,0,0,0,0,0,0,0,0,-1.1496,-1.15,-1.1532,-1.1532,-1.1532,-1.1551,-1.155,-1.158,-1.1551,-1.1544,-1.1549,-1.1547,-1.157,-1.1573,-1.158,-1.1616,-1.1617,-1.1588,-1.1589,-1.159,-1.1591,0,0,0,0,0,0,0,-1.1494,-1.1499,-1.1545,-1.1532,-1.1532,-1.1529,-1.1532,-1.1556,-1.1562,-1.1544,-1.1543,-1.1547,-1.157,-1.1578,-1.1581,-1.1618,-1.1588,-1.159,-1.1591,-1.1592,-1.1681,-1.1682,0,0,0,0,0,0,-1.1492,-1.1497,-1.1544,-1.1545,-1.1511,-1.1531,-1.1534,-1.1546,-1.1562,-1.1563,-1.1548,-1.1546,-1.1575,-1.1578,-1.1582,-1.1622,-1.159,-1.1592,-1.1593,-1.168,-1.1681,-1.1683,0,0,0,0,0,0,-1.1491,-1.1496,-1.1543,-1.1521,-1.1527,-1.1533,-1.1547,-1.1547,-1.1556,-1.1565,-1.1566,-1.1555,-1.1574,-1.1579,-1.1606,-1.1623,-1.1593,-1.1595,-1.1679,-1.1681,-1.1682,-1.1702,0,0,0,0,0,0,-1.1489,-1.1496,-1.1509,-1.1521,-1.1528,-1.1567,-1.1548,-1.1549,-1.1559,-1.1557,-1.1572,-1.1573,-1.1574,-1.1603,-1.1608,-1.1625,-1.1597,-1.1677,-1.168,-1.1682,-1.17,-1.1704,-1.1708,0,0,0,0,0,-1.1487,-1.1514,-1.151,-1.1515,-1.1544,-1.1568,-1.1571,-1.1572,-1.1561,-1.1574,-1.1579,-1.1573,-1.162,-1.1606,-1.1612,-1.163,-1.1676,-1.1679,-1.1681,-1.1699,-1.1704,-1.1708,0,0,0,0,0,0,-1.1504,-1.1516,-1.1511,-1.1543,-1.1554,-1.1566,-1.1582,-1.1577,-1.1593,-1.159,-1.159,-1.1594,-1.1622,-1.1628,-1.1613,-1.1662,-1.1646,-1.165,-1.1657,-1.1662,-1.1666,-1.1665,-1.1598,0,0,0,0,0,-1.1511,-1.1529,-1.1538,-1.1566,-1.1572,-1.1576,-1.1586,-1.1585,-1.1597,-1.1602,-1.161,-1.1622,-1.1639,-1.1651,-1.1667,-1.17,-1.1703,-1.1715,-1.1719,-1.1722,-1.1726,-1.1744,-1.1749,-1.1691,-1.1691,-1.1691,0,0,-1.1527,-1.1535,-1.1547,-1.1569,-1.1578,-1.1597,-1.158,-1.1601,-1.1615,-1.1605,-1.1632,-1.1637,-1.1651,-1.1681,-1.1695,-1.1687,-1.1742,-1.1725,-1.1728,-1.173,-1.1747,-1.1752,-1.1757,-1.1692,-1.1692,-1.1692,0,0,-1.1565,-1.1573,-1.1597,-1.1606,-1.1619,-1.1621,-1.1627,-1.1639,-1.1642,-1.1668,-1.1661,-1.1677,-1.1708,-1.1717,-1.1726,-1.1766,-1.1761,-1.1771,-1.1792,-1.181,-1.1814,-1.1818,-1.1833,-1.1838,-1.1775,-1.1775,-1.1775,0,-1.1584,-1.1612,-1.161,-1.1631,-1.1641,-1.1632,-1.1656,-1.1664,-1.1682,-1.1689,-1.168,-1.1717,-1.1725,-1.1758,-1.1767,-1.1774,-1.1781,-1.1771,-1.1814,-1.1818,-1.1821,-1.1836,-1.1841,-1.1776,-1.1776,-1.1776,-1.1775,0,-1.1633,-1.1653,-1.167,-1.1687,-1.1699,-1.1721,-1.1722,-1.1734,-1.1732,-1.1735,-1.1761,-1.177,-1.1789,-1.1796,-1.1794,-1.1827,-1.1822,-1.1813,-1.1798,-1.1828,-1.1842,-1.1847,-1.1778,-1.1777,-1.1777,-1.1777,0,0,-1.1686,-1.17,-1.1707,-1.1714,-1.1727,-1.1742,-1.1763,-1.178,-1.179,-1.1802,-1.1821,-1.1845,-1.1836,-1.1846,-1.1845,-1.186,-1.1891,-1.1849,-1.1849,-1.1857,-1.1929,-1.1937,-1.1943,-1.1887,-1.1888,-1.1889,-1.1928,0,-1.1726,-1.1764,-1.1762,-1.1797,-1.1815,-1.1806,-1.1824,-1.1834,-1.1837,-1.1852,-1.1855,-1.1873,-1.186,-1.1866,-1.188,-1.1885,-1.1906,-1.1881,-1.1904,-1.1905,-1.1903,-1.195,-1.1959,-1.1996,-1.1934,-1.1934,-1.1935,0,-1.1779,-1.1792,-1.1829,-1.1838,-1.1845,-1.1862,-1.1877,-1.1892,-1.1902,-1.1903,-1.1913,-1.1909,-1.193,-1.1913,-1.1942,-1.1925,-1.1934,-1.1938,-1.1939,-1.1942,-1.1923,-1.1956,-1.2008,-1.2014,-1.1943,-1.1942,-1.1942,0,-1.1814,-1.1841,-1.1867,-1.1873,-1.1884,-1.1896,-1.1901,-1.1911,-1.1921,-1.1933,-1.194,-1.1955,-1.1964,-1.1975,-1.1975,-1.1962,-1.2005,-1.1987,-1.2007,-1.2007,-1.2018,-1.2018,-1.2073,-1.2021,-1.2021,-1.2021,-1.2021,0,-1.186,-1.1884,-1.1883,-1.1899,-1.1924,-1.1921,-1.1946,-1.195,-1.1958,-1.1974,-1.1966,-1.1982,-1.198,-1.1995,-1.1995,-1.2019,-1.2023,-1.2025,-1.2025,-1.2026,-1.2026,-1.2033,-1.2031,-1.2023,-1.2022,-1.2022,-1.2022,0,-1.1905,-1.1906,-1.1933,-1.194,-1.1943,-1.1961,-1.1968,-1.1983,-1.1984,-1.2005,-1.2009,-1.2012,-1.2029,-1.2029,-1.205,-1.2049,-1.2079,-1.2076,-1.2076,-1.2076,-1.2096,-1.2094,-1.2159,-1.2168,-1.2109,-1.211,-1.211,0,-1.1936,-1.1953,-1.1962,-1.1972,-1.1978,-1.1995,-1.2004,-1.2001,-1.2012,-1.2024,-1.2037,-1.2054,-1.2067,-1.2096,-1.2099,-1.2114,-1.2112,-1.2133,-1.2114,-1.2115,-1.2113,-1.2113,-1.2115,-1.2138,-1.2138,-1.2139,-1.2139,0,-1.1989,-1.1988,-1.2003,-1.2017,-1.2028,-1.204,-1.205,-1.2058,-1.2056,-1.2069,-1.2086,-1.2096,-1.2116,-1.2133,-1.2147,-1.2152,-1.2146,-1.2145,-1.215,-1.2153,-1.2153,-1.2154,-1.2088,-1.2144,-1.2143,-1.2143,-1.2143,-1.2143,-1.2029,-1.2043,-1.2052,-1.2068,-1.2075,-1.2084,-1.2099,-1.2101,-1.2115,-1.2131,-1.2128,-1.2148,-1.2156,-1.2175,-1.2181,-1.2196,-1.2189,-1.2197,-1.2199,-1.2201,-1.2204,-1.2149,-1.2199,-1.2199,-1.2198,-1.2198,-1.2198,0,-1.2083,-1.2087,-1.2102,-1.2116,-1.2128,-1.2119,-1.213,-1.2141,-1.2158,-1.2167,-1.2179,-1.2199,-1.2215,-1.2219,-1.2234,-1.2245,-1.2242,-1.2249,-1.2249,-1.225,-1.2209,-1.2203,-1.2251,-1.2251,-1.2251,-1.2251,-1.2251,-1.2251,-1.2112,-1.2137,-1.2137,-1.2164,-1.2169,-1.2188,-1.2194,-1.2203,-1.2209,-1.2232,-1.2244,-1.2246,-1.2253,-1.2268,-1.2282,-1.2282,-1.2289,-1.2297,-1.2297,-1.2259,-1.2253,-1.2248,-1.2243,-1.2298,-1.2298,-1.2337,-1.2337,-1.2337]}]]